Regional Weather Roundup
Issued by NWS

Home | Current Version | Previous Version | Graphics & Text | Print | Product List | Glossary On
Versions: 1 2 3 4 5 6 7 8 9 10 11 12 13 14 15 16 17 18 19 20 21 22 23 24 25 26 27 28 29 30 31 32 33 34 35 36 37 38 39 40 41 42 43 44 45 46 47 48 49 50
000
ASUS43 KOAX 251110
RWRNE

WEATHER ROUNDUP FOR NEBRASKA
NATIONAL WEATHER SERVICE OMAHA NE
600 AM CDT THU MAY 25 2017

NOTES: SATELLITE DATA IS BEING USED TO AUGMENT CLOUD COVER ABOVE
       12000 FEET.
       "FAIR" INDICATES FEW OR NO CLOUDS BELOW 12,000 FEET WITH NO
       SIGNIFICANT WEATHER AND/OR OBSTRUCTIONS TO VISIBILITY.

  * THESE STATIONS DO NOT REPORT WEATHER SUCH AS RAIN...SNOW OR FOG.

NEZ001>004-019>022-054>056-251200-
NEBRASKA PANHANDLE

CITY           SKY/WX    TMP DP  RH WIND       PRES   REMARKS
SCOTTSBLUFF    PTCLDY    54  46  74 SW3       29.53S
ALLIANCE       CLOUDY    53  47  79 NW9       29.51R
CHADRON        CLOUDY    56  47  71 W3        29.50R
GORDON         FAIR      52  48  87 SW6       29.49R
KIMBALL        MOCLDY    60  43  53 NW15G22   29.58R
SIDNEY         PTCLDY    55  45  68 NW14      29.53R
$$

NEZ057>060-069>072-079>082-251200-
SOUTHWEST NEBRASKA

CITY           SKY/WX    TMP DP  RH WIND       PRES   REMARKS
NORTH PLATTE   CLOUDY    50  45  83 SE6       29.50S
IMPERIAL       CLEAR     54  45  71 S8        29.48R
LEXINGTON      CLEAR     51  44  76 SE9G17    29.53F
MCCOOK         CLEAR     47  44  90 SE9       29.49F
OGALLALA       CLOUDY    48  46  90 E5        29.47F
$$

NEZ005>010-023>029-035>040-094-251200-
NORTH CENTRAL NEBRASKA

CITY           SKY/WX    TMP DP  RH WIND       PRES   REMARKS
VALENTINE      CLEAR     55  43  63 SW10      29.45R
AINSWORTH      CLEAR     51  45  79 S21G30    29.43S
BROKEN BOW     CLEAR     50  44  80 S14       29.51F
O`NEILL        CLOUDY    56  42  59 S21G28    29.51S
ORD            CLEAR     51  42  71 S12       29.53F
THEDFORD       CLEAR     51  44  78 S22       29.46F
$$

NEZ041-046>049-061>064-073>077-083>087-251200-
SOUTH CENTRAL NEBRASKA

CITY           SKY/WX    TMP DP  RH WIND       PRES   REMARKS
GRAND ISLAND   CLOUDY    52  45  77 S10       29.59F
AURORA         PTCLDY    53  44  70 S10G16    29.60R
HASTINGS       CLOUDY    52  43  71 S12       29.59R
HEBRON         PTCLDY    51  45  80 S9        29.61F
HOLDREGE       CLEAR     50  42  75 S16       29.54F
KEARNEY *      CLEAR     50  43  76 S12       29.57R
YORK           CLOUDY    54  45  71 S10       29.61R
$$

NEZ011>018-030>034-042>045-251200-
NORTHEAST NEBRASKA

CITY           SKY/WX    TMP DP  RH WIND       PRES   REMARKS
NORFOLK        CLEAR     52  42  69 S13       29.59R
ALBION         CLOUDY    55  44  67 S9        29.57S
BLAIR          CLEAR     51  47  86 SE7       29.64F
FREMONT        CLEAR     52  45  78 SE9       29.61F
TEKAMAH        CLEAR     49  32  52 SE9       29.64S
WAYNE          CLEAR     49  46  91 S8        29.61R
$$

NEZ050>053-065>068-078-088>093-251200-
SOUTHEAST NEBRASKA

CITY           SKY/WX    TMP DP  RH WIND       PRES   REMARKS
LINCOLN        CLOUDY    48  45  89 SE8       29.64F
OMAHA EPPLEY   PTCLDY    50  45  83 SE7       29.65S
BEATRICE       CLEAR     51  46  83 SE7       29.63F
FALLS CITY     PTCLDY    48  45  89 SE3       29.68R
NEBRASKA CITY  CLEAR     49  46  92 S6        29.67S
PLATTSMOUTH    CLEAR     52  49  89 SE9       29.65F
$$

NEZ044-045-051>053-067-251200-
OMAHA AREA

CITY           SKY/WX    TMP DP  RH WIND       PRES   REMARKS
OMAHA EPPLEY   PTCLDY    50  45  83 SE7       29.65S
BLAIR          CLEAR     51  47  86 SE7       29.64F
FREMONT        CLEAR     52  45  78 SE9       29.61F
MILLARD        CLEAR     51  48  90 SE3       29.65S
OFFUTT AFB     CLEAR     48  45  91 SE5       29.64F
PLATTSMOUTH    CLEAR     52  49  89 SE9       29.65F
WAHOO          FAIR      47  45  90 SE7       29.62F
$$




USA.gov is the U.S. government's official web portal to all federal, state and local government web resources and services.